Lapse_Rate
6.6 6.6 6.7 7.0 7.1 7.7 8.2 7.7 7.4 7.3 7.0 7.1 7.0 7.0 6.9 6.9 7.0 7.0 6.9 6.5 6.4 6.3 6.2 6.0 5.8 5.8 5.6 5.4 5.4 5.6 5.9 5.9 6.1 6.1 6.1 6.4 6.4 6.3 6.4 6.5 6.6 6.6 6.6 6.6 6.5 6.5 6.4 6.5 6.4
6.6 6.6 6.9 7.1 7.1 8.4 7.9 7.5 7.3 7.0 7.2 7.2 7.1 7.0 6.7 6.9 7.0 6.9 7.1 6.7 6.4 6.4 6.3 6.2 6.0 5.8 5.7 5.6 5.6 5.8 6.0 6.2 6.3 6.3 6.4 6.4 6.5 6.5 6.5 6.7 6.7 6.7 6.6 6.6 6.6 6.5 6.5 6.4 6.4
6.6 6.7 6.9 7.0 7.6 7.7 7.7 7.4 7.3 7.3 7.2 7.2 7.2 7.0 7.0 7.1 7.2 7.3 7.0 6.8 6.5 6.5 6.4 6.2 6.2 6.1 6.0 5.8 5.6 5.6 5.8 6.0 6.2 6.3 6.2 6.3 6.4 6.5 6.5 6.6 6.6 6.6 6.6 6.7 6.6 6.6 6.5 6.5 6.3
6.7 6.7 6.8 7.3 7.6 7.5 7.3 7.1 7.1 7.4 7.3 7.1 7.1 6.8 7.1 7.0 7.2 7.4 7.1 6.9 6.6 6.6 6.5 6.4 6.4 6.3 6.2 6.0 6.0 6.1 6.1 6.0 6.3 6.2 6.2 6.2 6.2 6.2 6.4 6.4 6.5 6.5 6.6 6.7 6.7 6.6 6.6 6.5 6.5
6.8 6.8 6.8 7.4 7.6 7.3 7.3 7.2 7.3 7.3 7.3 7.3 7.0 6.8 7.1 7.2 7.2 7.3 7.2 7.2 6.9 6.8 6.6 6.6 6.4 6.4 6.4 6.4 6.3 6.3 6.3 6.4 6.3 6.2 6.2 6.1 6.3 6.4 6.4 6.5 6.6 6.5 6.5 6.6 6.6 6.5 6.4 6.3 6.4
6.8 6.8 6.9 7.6 7.7 7.3 7.4 7.4 7.3 6.9 7.0 7.3 7.0 6.9 7.3 7.0 7.2 7.2 7.1 7.1 7.0 7.1 6.9 6.7 6.7 6.6 6.5 6.5 6.4 6.4 6.5 6.5 6.4 6.4 6.4 6.4 6.4 6.5 6.5 6.5 6.6 6.5 6.6 6.5 6.4 6.3 6.3 6.1 6.2
6.8 6.7 7.0 7.3 7.5 7.4 7.1 7.5 7.3 6.9 6.8 7.0 7.1 6.8 7.1 7.1 7.1 7.1 7.0 6.9 7.0 6.9 6.8 6.6 6.5 6.4 6.4 6.4 6.3 6.3 6.3 6.4 6.3 6.3 6.3 6.4 6.5 6.6 6.6 6.6 6.5 6.6 6.6 6.5 6.4 6.4 6.3 6.3 6.4
6.9 6.7 6.9 7.2 7.4 7.4 7.4 7.4 7.3 7.2 6.6 6.9 7.0 6.6 7.2 7.1 7.1 7.0 7.0 6.9 7.0 6.9 6.9 6.7 6.5 6.5 6.4 6.3 6.3 6.3 6.3 6.4 6.4 6.3 6.3 6.4 6.5 6.5 6.7 6.7 6.7 6.6 6.7 6.6 6.6 6.6 6.5 6.4 6.4
6.8 6.8 7.0 7.4 7.4 7.2 7.3 7.3 7.3 7.3 7.2 7.2 7.1 7.0 7.0 7.1 7.1 7.0 7.0 7.0 7.0 6.9 6.9 6.8 6.7 6.7 6.6 6.6 6.4 6.4 6.5 6.6 6.5 6.5 6.5 6.6 6.7 6.7 6.6 6.6 6.6 6.4 6.4 6.4 6.5 6.6 6.5 6.5 6.5
6.7 6.8 7.2 7.2 7.3 7.2 7.1 7.3 7.3 7.3 7.2 7.2 7.1 7.0 6.9 7.0 7.1 7.1 7.0 6.9 6.9 6.9 6.9 6.9 6.7 6.7 6.7 6.7 6.6 6.6 6.5 6.5 6.5 6.5 6.6 6.6 6.5 6.6 6.6 6.5 6.5 6.5 6.5 6.4 6.4 6.5 6.5 6.5 6.5
6.8 6.9 7.0 7.0 7.3 7.2 7.2 7.4 7.2 7.5 7.3 7.3 7.0 7.0 6.8 6.9 7.0 7.1 7.0 7.0 6.8 6.7 6.9 6.9 6.9 6.9 6.9 6.9 6.6 6.6 6.6 6.5 6.5 6.5 6.7 6.8 6.6 6.5 6.5 6.5 6.5 6.5 6.4 6.4 6.3 6.4 6.4 6.4 6.5
6.8 7.0 7.1 7.1 7.3 7.2 7.2 7.4 7.6 7.6 7.3 7.3 7.1 7.0 7.1 7.0 6.9 6.9 6.9 7.0 7.1 7.1 6.9 7.0 6.9 6.9 6.8 6.9 6.9 6.8 6.7 6.5 6.6 6.2 6.6 6.7 6.7 6.6 6.4 6.3 6.4 6.4 6.4 6.4 6.3 6.3 6.3 6.4 6.4
6.8 6.8 7.3 7.2 7.2 7.4 7.4 7.4 7.5 8.0 7.6 7.4 7.3 6.8 7.1 7.0 6.9 6.9 6.9 6.9 7.0 7.1 7.1 6.9 6.9 6.8 6.8 6.8 6.8 6.7 6.6 6.6 6.4 6.3 6.3 6.4 6.4 6.3 6.3 6.3 6.4 6.4 6.4 6.3 6.3 6.2 6.2 6.2 6.2
6.8 6.9 7.3 7.4 7.3 7.4 7.4 7.4 7.4 8.0 7.6 7.6 7.5 7.2 7.1 7.1 6.9 7.0 7.0 7.1 7.0 7.1 7.0 7.1 6.8 6.8 6.8 6.8 6.8 6.7 6.6 6.4 6.3 6.2 6.1 6.1 6.2 6.2 6.2 6.2 6.4 6.5 6.4 6.3 6.3 6.0 5.8 5.7 5.8
6.8 6.8 7.0 7.2 7.3 7.4 7.5 7.5 7.7 7.8 7.7 7.8 7.5 7.5 7.3 7.2 7.2 7.3 7.2 7.1 7.0 7.0 7.0 7.0 7.0 6.8 6.9 6.8 6.7 6.7 6.6 6.5 6.3 6.2 5.8 6.1 6.1 6.1 6.0 6.0 6.3 6.3 6.4 6.3 6.0 6.0 5.9 5.5 5.4
6.8 6.8 6.8 7.1 7.3 7.4 7.3 7.7 7.5 8.0 7.8 7.9 7.7 7.5 7.5 7.4 7.4 7.4 7.3 7.3 7.1 7.2 7.3 7.1 7.1 7.0 6.8 6.8 6.7 6.8 6.7 6.6 6.7 6.5 6.3 6.1 6.3 6.3 6.2 6.1 6.1 6.1 6.2 6.1 5.9 5.9 5.7 5.6 4.7
6.7 6.8 7.0 6.9 6.9 7.0 7.1 7.3 7.2 7.7 7.7 7.8 7.8 7.7 7.7 7.7 7.7 7.7 7.5 7.4 7.5 7.3 7.3 7.2 7.2 7.2 7.0 6.9 6.7 6.8 6.8 6.8 6.7 6.7 6.6 6.4 6.2 6.2 6.3 6.1 6.2 6.0 6.0 5.9 6.0 5.4 5.4 4.9 4.7
6.9 6.8 7.1 6.9 6.9 6.9 6.8 7.3 7.2 7.5 7.6 7.8 7.8 7.9 7.9 7.8 7.9 7.8 7.7 7.6 7.6 7.4 7.4 7.4 7.4 7.4 7.1 7.0 6.9 7.0 6.9 6.8 6.8 6.6 6.7 6.6 6.3 6.2 6.3 6.3 6.1 6.0 6.1 6.1 5.8 5.4 4.7 4.7 4.9
6.5 6.7 6.8 7.0 6.7 6.5 6.7 6.8 7.2 7.4 7.7 7.8 8.0 8.2 8.2 8.0 7.8 7.9 8.0 8.0 7.8 7.8 7.8 7.8 7.6 7.5 7.2 7.0 7.0 6.9 7.1 6.9 6.9 6.7 6.6 6.6 6.4 6.3 6.4 6.3 6.2 6.1 6.1 6.1 6.0 5.4 5.0 5.2 5.3
6.5 6.5 6.7 7.1 6.4 6.4 6.5 6.7 7.1 7.2 7.7 8.0 8.0 8.2 8.3 8.3 8.2 8.1 8.0 8.0 8.0 7.9 7.9 7.8 7.8 7.7 7.3 7.1 7.0 6.9 6.9 7.0 7.0 7.0 6.8 6.8 6.5 6.1 6.2 6.4 6.4 6.3 6.2 6.2 6.1 5.6 5.1 5.2 5.2
6.5 6.6 6.8 6.6 6.5 6.1 6.3 6.5 7.4 7.7 7.8 8.1 8.2 8.3 8.4 8.4 8.3 8.2 8.2 8.3 8.2 8.0 7.9 7.9 7.8 7.7 7.4 7.1 6.9 6.9 6.8 7.0 7.2 7.3 7.0 6.8 6.7 6.4 6.3 6.4 6.4 6.3 6.2 6.2 6.1 5.8 5.2 4.9 5.4
6.3 6.5 6.4 6.7 6.3 5.9 6.0 5.0 6.9 7.2 7.5 7.8 8.3 8.4 8.3 8.4 8.6 8.5 8.3 8.2 8.3 8.2 8.0 8.1 8.0 7.9 7.7 7.3 7.1 6.9 6.9 6.7 6.9 6.9 6.9 6.7 6.7 6.6 6.5 6.5 6.4 6.3 6.2 6.3 6.1 5.7 5.1 5.2 5.3
6.0 6.5 6.6 6.7 6.4 5.7 6.0 5.4 5.6 6.9 7.2 7.7 7.9 8.3 8.5 8.5 8.6 8.5 8.4 8.2 7.9 8.1 8.1 7.9 8.1 8.0 7.9 7.6 7.3 7.0 6.9 6.9 6.7 6.7 6.7 6.9 6.7 6.7 6.7 6.6 6.5 6.5 6.4 6.3 6.2 5.7 5.4 5.2 4.7
6.2 6.4 6.6 6.6 6.3 5.0 6.0 6.1 5.8 6.8 7.1 7.1 7.6 7.6 8.0 8.1 8.2 8.1 8.2 8.1 8.1 8.1 7.9 8.0 7.9 7.8 7.6 7.4 7.3 7.0 6.8 6.8 6.8 6.7 6.8 6.8 6.7 6.6 6.5 6.5 6.4 6.3 6.2 6.2 6.2 5.9 5.0 5.2 5.0
6.0 6.0 6.5 5.6 4.8 4.2 6.8 6.7 5.9 6.7 7.1 7.1 7.2 7.6 7.7 8.0 8.1 8.0 7.9 8.1 8.3 8.0 8.0 7.9 7.6 7.6 7.5 7.3 7.3 7.2 7.0 6.9 6.8 6.6 6.9 7.0 6.9 6.6 6.5 6.3 6.2 6.2 6.1 6.0 5.9 5.7 5.2 5.2 5.2
7.1 6.8 6.9 4.9 5.0 4.7 6.2 6.0 6.0 6.4 6.9 7.0 7.1 7.3 7.6 7.7 7.7 7.8 7.6 7.7 7.7 7.7 7.7 7.5 7.5 7.3 7.2 7.0 7.0 6.9 6.9 6.9 6.8 6.7 7.0 6.8 6.7 6.5 6.3 6.2 6.0 5.9 5.9 5.8 5.7 5.7 5.6 4.8 5.1
6.3 6.3 6.5 7.1 7.0 5.6 5.9 6.0 6.1 6.2 6.4 7.1 7.1 7.1 7.0 7.2 7.4 7.9 8.0 7.7 7.6 7.7 7.8 7.7 7.4 7.1 6.9 6.8 6.7 6.7 6.7 6.7 6.7 6.7 6.9 7.0 6.9 6.6 6.4 6.2 6.0 5.9 5.7 5.7 5.5 5.4 5.0 5.0 4.8
6.6 6.4 6.2 6.5 4.8 4.5 5.6 5.9 5.9 6.3 6.6 6.7 6.9 7.1 7.2 7.1 7.1 7.4 7.6 7.7 7.6 7.5 7.6 7.0 6.9 6.7 6.5 6.6 6.6 6.6 6.6 6.6 6.7 6.9 6.9 7.0 6.9 6.9 6.6 6.4 6.2 6.0 5.8 5.6 5.4 4.9 5.1 5.0 4.6
6.5 6.5 6.4 6.7 7.0 4.8 5.3 6.0 6.3 6.5 6.6 6.5 6.5 6.6 7.0 7.2 7.5 7.8 7.8 7.7 7.6 7.5 7.1 6.7 6.4 6.3 6.4 6.4 6.5 6.6 6.5 6.5 6.5 6.7 6.9 7.2 7.1 7.1 6.9 6.7 6.3 6.1 5.8 5.4 5.3 5.2 5.0 4.7 4.5
6.1 6.4 6.6 6.7 6.3 6.8 6.9 5.8 6.4 6.8 6.9 6.8 6.9 6.6 6.8 7.2 7.5 7.7 7.7 7.8 7.7 6.8 6.6 6.5 6.4 6.5 6.4 6.2 6.0 6.3 6.5 6.7 6.8 6.8 7.0 7.2 7.0 6.9 6.8 6.6 6.3 6.1 5.9 5.8 5.6 5.0 4.9 4.5 4.6
Wind_Speed
14 13 4 3 2 3 3 4 6 6 5 3 8 5 3 9 5 3 9 9 15 13 20 17 13 14 13 14 14 13 14 15 15 15 16 15 16 15 15 18 19 24 23 21 21 21 22 22 20
9 8 2 4 3 2 4 8 5 7 8 7 6 2 1 4 7 8 9 11 18 17 20 17 17 16 17 15 15 14 14 15 15 15 15 16 16 16 16 16 20 23 21 20 20 20 21 21 20
7 5 1 3 3 5 4 4 10 9 7 5 4 2 3 4 9 11 10 11 17 14 21 21 20 19 17 16 16 15 15 15 16 15 15 16 16 16 16 17 21 21 21 19 19 20 21 19 17
4 2 3 2 4 7 7 5 12 8 3 4 3 6 5 5 8 8 9 13 11 12 19 26 21 18 17 16 16 16 16 15 16 16 15 16 16 16 16 18 19 22 18 19 19 19 20 17 16
3 3 3 4 3 5 6 6 8 6 7 8 3 5 5 2 8 10 9 10 10 12 20 20 21 19 17 16 17 16 16 16 16 15 16 16 16 16 16 18 20 19 18 19 20 20 20 16 16
2 1 4 5 5 6 5 5 5 6 7 6 3 2 4 9 7 7 8 8 14 11 17 17 19 20 19 17 17 16 16 16 16 16 16 16 17 17 17 18 19 18 19 20 20 20 19 17 19
2 3 8 7 4 1 5 5 3 5 8 6 3 1 4 8 8 7 8 7 15 16 16 17 15 18 19 19 18 18 18 17 16 17 17 17 17 17 17 18 18 18 19 20 20 20 20 19 22
3 1 7 5 5 2 6 5 2 2 3 3 3 3 5 8 9 8 7 7 10 9 15 16 16 15 15 18 19 18 19 19 18 19 20 20 19 19 19 19 18 19 19 19 20 20 19 18 19
2 2 4 6 3 2 7 5 1 3 5 1 5 3 4 11 10 7 7 7 8 8 7 12 15 17 17 16 18 20 20 20 20 21 22 20 18 20 16 18 19 19 19 20 19 19 18 20 21
2 3 5 7 8 6 6 5 9 3 5 4 5 7 2 9 8 8 8 7 6 8 7 6 10 13 17 17 19 16 17 17 17 17 23 19 20 17 18 19 19 19 19 19 19 20 18 17 14
4 3 5 7 6 7 4 2 2 5 5 8 10 13 9 7 9 9 9 7 8 7 8 8 10 13 13 12 17 15 15 16 17 19 18 15 20 22 16 18 17 19 19 16 17 12 9 16 14
3 5 3 3 4 3 2 5 4 8 5 5 6 13 12 11 11 11 11 9 12 13 11 10 14 12 14 14 15 15 15 15 14 18 20 15 15 16 16 14 17 16 15 14 10 15 17 18 17
3 2 3 7 4 3 4 6 6 7 10 6 6 9 12 10 10 9 9 9 9 10 10 13 10 11 13 14 14 13 14 16 17 19 19 18 15 12 17 15 15 18 17 15 14 14 15 17 18
5 5 1 6 5 3 2 6 2 7 10 9 9 8 8 11 12 9 9 10 10 11 10 14 14 14 17 10 13 12 12 18 18 19 20 20 16 14 12 14 12 12 17 18 15 15 13 13 17
1 3 6 7 5 2 3 7 11 10 6 6 7 10 10 10 11 12 12 10 10 8 10 10 14 15 10 7 10 12 14 14 13 16 20 21 21 17 14 12 13 14 16 18 18 15 14 13 13
4 2 2 3 8 4 3 6 6 1 6 10 9 9 10 12 12 10 10 11 10 9 10 9 9 11 10 9 11 11 15 15 12 15 18 22 21 23 18 12 13 16 17 16 14 12 6 4 4
5 4 6 4 7 4 6 5 3 3 1 6 7 9 9 10 11 11 11 10 11 10 10 11 10 11 11 9 11 9 11 10 14 16 17 20 21 22 20 18 14 19 16 15 14 8 10 7 4
6 4 6 4 6 1 5 11 12 10 8 10 10 10 9 9 12 10 12 11 10 10 9 11 10 11 9 5 5 5 5 8 12 10 11 21 19 24 21 19 18 18 14 9 11 10 7 7 8
3 5 8 5 3 2 7 11 10 10 10 9 10 10 10 12 10 10 12 12 11 10 10 14 13 13 10 8 8 5 8 4 3 7 7 14 18 22 21 17 19 19 11 11 13 9 11 6 9
1 6 8 8 6 2 7 12 12 10 13 12 11 11 11 9 10 10 11 11 13 14 11 11 14 13 13 10 9 7 6 4 4 8 9 11 12 17 19 19 15 19 10 11 12 12 8 2 8
6 7 7 8 2 6 4 8 10 10 17 12 11 12 10 11 10 8 10 13 11 11 11 12 14 16 15 12 5 3 2 2 3 5 6 9 14 17 18 20 19 18 16 12 15 14 15 9 10
6 3 8 5 5 3 2 6 7 10 9 8 11 10 11 9 9 9 9 8 11 15 12 10 10 9 11 12 10 13 11 10 7 5 4 7 13 14 19 21 21 20 17 13 12 15 12 8 13
3 4 3 1 3 5 4 4 7 9 7 9 9 10 10 8 8 6 9 9 8 9 9 9 9 9 10 13 12 10 9 6 4 4 7 8 9 15 16 20 21 16 15 14 14 15 12 10 10
7 4 2 1 2 6 9 8 4 7 4 2 1 4 5 6 5 6 6 5 3 7 8 9 10 9 10 12 13 12 13 8 6 7 8 7 6 7 13 16 18 19 16 14 13 15 16 13 10
2 5 1 2 0 7 3 3 9 7 8 4 5 8 6 3 1 2 5 3 3 5 6 6 8 8 8 9 9 9 7 8 7 6 8 9 6 6 9 10 11 10 16 17 18 13 13 10 11
8 7 5 7 4 5 4 9 6 3 2 2 4 8 7 5 5 6 7 7 7 7 7 7 7 6 8 8 8 7 8 5 6 7 6 8 8 8 9 9 11 13 15 16 17 10 12 11 10
6 7 7 4 2 3 5 10 12 7 6 5 9 8 9 8 6 6 7 4 5 6 6 7 7 7 8 8 7 8 7 9 8 7 7 6 8 7 10 12 11 11 13 14 13 10 12 12 12
3 1 2 2 3 5 7 7 11 10 14 9 6 6 7 7 9 8 3 3 3 4 4 5 6 7 6 6 7 6 7 7 7 6 7 7 7 8 10 11 11 11 10 10 11 10 12 12 8
2 4 3 2 5 5 5 7 5 6 5 6 7 6 5 5 4 5 4 5 4 2 2 4 5 6 7 6 6 7 7 7 7 7 7 8 7 8 10 11 12 12 11 10 11 10 10 13 10
3 6 10 4 4 3 4 16 2 1 3 4 5 4 3 5 5 3 2 4 5 5 4 6 6 7 7 7 7 7 7 7 7 7 7 7 7 8 10 9 11 11 11 10 11 11 12 13 13
Wind_Direction
306 272 300 313 266 207 109 80 100 101 114 55 52 30 26 49 17 110 146 144 142 154 138 146 145 141 135 127 121 115 111 105 100 98 96 92 90 84 76 77 90 85 84 83 78 78 79 78 79
305 307 241 269 249 246 75 123 126 99 85 82 88 251 294 92 77 126 150 144 149 139 140 146 149 141 143 134 123 118 111 107 104 102 100 99 96 94 85 77 91 90 88 84 84 84 82 83 86
267 258 325 230 279 40 89 53 101 87 115 149 131 359 4 79 106 153 129 137 139 146 145 144 148 146 142 135 130 122 115 113 108 104 101 98 99 98 95 85 91 92 89 91 90 89 88 86 78
284 213 269 263 301 67 50 72 106 119 85 4 9 118 80 316 138 126 142 140 141 144 132 143 147 145 146 141 133 126 121 115 110 106 104 101 102 103 100 96 92 91 97 97 95 92 90 87 73
240 274 261 234 27 87 91 71 126 165 136 142 166 125 92 73 72 120 163 142 138 128 125 138 147 150 149 144 139 133 127 120 114 112 109 107 108 108 107 102 98 103 103 99 98 95 91 85 68
278 245 274 238 93 99 98 125 146 154 121 76 149 254 97 127 138 161 162 147 140 120 130 138 153 156 154 152 145 139 132 126 121 119 118 116 114 113 111 108 108 109 106 104 101 99 95 84 65
262 229 275 323 60 240 113 138 182 170 132 165 48 323 111 138 163 163 164 172 151 139 135 144 158 162 162 157 153 147 139 132 129 126 121 118 114 112 111 112 112 110 110 108 105 101 99 85 76
314 265 277 273 289 75 103 156 356 201 98 84 43 349 148 165 157 153 181 187 138 141 142 151 162 161 161 163 161 155 148 143 135 129 126 121 118 117 115 114 116 115 113 112 108 105 97 80 76
301 302 258 260 194 53 115 172 314 9 112 50 138 61 334 133 127 169 177 203 131 142 137 159 161 167 166 162 169 161 156 150 143 139 135 127 128 128 118 119 119 118 118 117 113 107 94 82 84
223 192 259 16 31 23 131 236 144 155 187 186 138 88 354 124 157 176 185 184 147 143 154 154 156 172 169 163 162 163 161 154 151 153 155 148 143 124 119 121 121 120 121 122 122 121 105 92 82
217 243 33 52 33 27 352 200 327 176 247 196 196 167 174 158 179 189 196 182 180 178 175 168 169 181 166 159 162 171 169 169 166 170 184 150 126 124 125 122 120 125 130 131 137 139 98 88 81
290 239 43 49 50 3 306 325 235 212 222 96 48 147 156 173 188 195 194 194 180 191 185 178 178 178 173 166 172 178 172 179 172 174 195 136 138 142 147 148 150 153 151 151 127 103 95 89 84
235 247 87 82 105 279 8 271 250 265 233 185 95 115 165 181 196 203 201 198 189 192 183 183 173 180 183 182 177 182 180 180 180 180 190 156 157 157 162 158 169 171 166 139 122 115 109 103 91
6 355 233 149 192 179 243 275 146 242 237 249 158 182 195 185 198 196 205 202 202 189 190 179 187 188 191 187 183 186 197 183 178 184 182 169 167 164 155 148 163 163 150 139 137 125 122 110 108
352 279 214 222 206 172 195 281 237 227 183 215 236 189 198 216 196 204 200 207 198 193 185 178 183 191 178 191 193 177 199 180 183 184 176 177 173 173 159 158 163 161 147 137 117 111 116 111 110
235 210 236 9 136 153 138 265 299 49 190 203 212 238 213 215 210 208 207 196 204 189 182 177 177 182 181 190 214 194 182 195 188 182 179 185 180 173 161 165 173 164 141 131 128 135 126 115 120
200 261 211 158 179 130 182 284 35 97 153 271 258 245 232 214 209 207 206 205 195 194 182 184 178 184 188 187 195 200 193 194 193 190 183 185 179 176 165 172 167 153 145 146 149 146 148 142 131
224 218 244 231 180 184 240 258 282 278 235 223 232 243 248 230 221 201 198 201 195 194 191 189 180 179 183 185 188 188 184 203 202 203 194 181 185 178 171 174 157 157 152 150 152 149 148 143 140
355 321 330 346 132 159 236 261 259 267 267 254 250 235 226 229 232 212 197 191 190 192 196 191 183 181 180 191 194 192 197 189 175 176 178 190 182 185 174 166 162 165 168 167 160 145 147 146 137
173 286 289 287 115 157 276 275 268 258 258 237 237 247 242 245 229 218 200 183 185 195 195 191 191 181 189 195 197 198 187 194 178 179 192 205 196 179 174 169 171 172 166 160 161 155 149 130 175
234 236 258 256 174 213 287 270 259 248 241 258 250 250 250 245 247 241 202 189 178 185 192 197 197 192 190 191 176 163 137 126 161 185 198 202 201 194 179 173 176 173 173 173 172 169 167 170 197
254 297 240 288 338 255 46 288 294 308 289 231 241 235 239 243 242 229 227 192 182 196 187 186 192 189 188 186 188 193 197 198 206 186 171 186 205 203 188 181 176 177 180 178 179 178 181 170 186
212 17 45 14 289 292 206 263 260 232 260 256 259 257 247 236 236 250 217 196 197 179 180 180 177 186 185 192 195 193 201 199 158 162 172 184 198 212 194 184 179 180 181 181 184 175 189 182 196
124 92 87 135 207 274 176 201 226 223 238 257 234 346 39 74 49 18 48 31 174 160 164 176 183 195 190 192 197 196 201 182 184 177 183 187 199 206 201 188 184 183 184 180 186 189 191 185 205
189 150 253 304 146 238 78 284 235 311 305 209 280 292 310 116 83 242 201 225 250 176 178 176 184 198 189 191 196 204 200 190 202 193 182 170 186 201 204 188 183 186 186 185 180 179 193 187 191
199 185 172 203 198 266 354 241 254 178 12 307 300 289 297 241 242 235 247 202 202 202 173 174 187 199 196 191 194 193 198 194 208 203 182 194 197 208 195 195 193 191 183 183 185 188 190 188 197
193 206 234 318 60 9 229 272 291 265 227 275 283 289 296 328 343 277 257 242 175 170 191 189 195 205 209 195 191 201 200 201 213 201 185 188 184 189 185 190 190 191 187 185 185 185 189 189 190
167 253 126 246 185 227 261 271 246 311 299 293 315 17 3 1 352 341 318 65 75 145 187 188 199 201 219 211 198 198 202 209 211 205 200 187 177 175 181 190 188 189 193 185 185 189 186 184 189
133 228 230 161 187 183 255 257 178 130 98 62 41 3 338 337 318 329 81 79 82 70 158 204 212 204 205 221 223 203 206 216 214 209 200 189 176 177 182 183 185 187 185 186 185 182 175 178 170
240 236 207 185 243 230 230 264 95 314 89 83 336 8 353 343 337 23 81 146 157 191 222 219 217 216 209 203 220 219 215 216 215 214 206 188 185 173 175 172 179 180 183 184 186 182 176 173 171